Location: Sulphur Springs (historical)
(38.1246°N, 122.1900°W)
Time: 05:38:33
(UTC+00:00)

ALOS - Pass Details

Date: 29 October 2020
Orbit: 684 x 684 km, 97.9° (Epoch: 29 November)

Event Time Altitude Azimuth Distance (km) Brightness Sun altitude
Rises 13:58:26 0° 353° (N) 3,055 5.4 -7.3°
Reaches altitude 10° 14:01:26 10° 332° (NNW) 2,135 4.4 -6.7°
Maximum altitude 14:04:14 16° 295° (WNW) 1,754 3.8 -6.2°
Drops below altitude 10° 14:07:03 10° 257° (WSW) 2,126 4.3 -5.6°
Sets 14:10:03 0° 237° (WSW) 3,037 5.2 -5.0°
